Location: Coopersdale
(40.3556°N, 78.9372°W)
Time: 01:52:08
(UTC+00:00)

Transit 4A - Pass Details

Date: 25 January 2021
Orbit: 867 x 978 km, 66.8° (Epoch: 07 March)

Event Time Altitude Azimuth Distance (km) Brightness Sun altitude
Rises 09:36:48 0° 326° (NW) 3,610 - -33.1°
Reaches altitude 10° 09:39:25 10° 322° (NW) 2,645 - -32.6°
Maximum altitude 09:45:21 52° 247° (WSW) 1,117 - -31.5°
Exits shadow 09:49:40 18° 177° (S) 2,058 9.7 -30.6°
Drops below altitude 10° 09:51:05 10° 172° (S) 2,555 10.3 -30.4°
Sets 09:53:35 0° 168° (SSE) 3,477 11.0 -29.9°
